TimeEST,TemperatureF,Dew PointF,Humidity,Sea Level PressureIn,VisibilityMPH,Wind Direction,Wind SpeedMPH,Gust SpeedMPH,PrecipitationIn,Events,Conditions,WindDirDegrees,DateUTC
12:53 AM,39.0,28.0,65,29.66,10.0,SSW,10.4,-,N/A,,Clear,200,2014-02-19 05:53:00
1:53 AM,37.0,28.0,70,29.65,10.0,SSW,5.8,-,N/A,,Clear,210,2014-02-19 06:53:00
2:53 AM,36.0,28.0,73,29.64,10.0,SW,6.9,-,N/A,,Clear,220,2014-02-19 07:53:00
3:53 AM,34.0,27.0,75,29.63,10.0,West,5.8,-,N/A,,Clear,260,2014-02-19 08:53:00
4:53 AM,33.1,27.0,78,29.62,10.0,WSW,4.6,-,N/A,,Clear,250,2014-02-19 09:53:00
5:53 AM,34.0,27.0,75,29.65,10.0,West,8.1,-,N/A,,Clear,260,2014-02-19 10:53:00
6:53 AM,35.1,28.0,76,29.70,10.0,WNW,13.8,-,N/A,,Overcast,290,2014-02-19 11:53:00
8:53 AM,34.0,28.9,82,29.79,6.0,WNW,11.5,-,0.00,Snow,Light Snow,300,2014-02-19 13:53:00
9:19 AM,34.0,30.0,85,29.79,3.0,NW,15.0,20.7,0.00,Snow,Light Snow,310,2014-02-19 14:19:00
9:53 AM,33.8,30.2,87,29.81,3.0,WNW,16.1,-,N/A,,Overcast,300,2014-02-19 14:53:00
10:43 AM,36.0,30.0,79,29.83,7.0,WNW,10.4,-,N/A,,Overcast,300,2014-02-19 15:43:00
10:53 AM,36.0,30.0,79,29.85,8.0,WNW,8.1,-,N/A,,Overcast,300,2014-02-19 15:53:00
11:18 AM,37.0,30.0,76,29.84,10.0,West,12.7,-,N/A,,Partly Cloudy,270,2014-02-19 16:18:00
11:53 AM,39.2,30.2,70,29.86,10.0,West,11.5,-,N/A,,Clear,280,2014-02-19 16:53:00
12:53 PM,41.0,28.0,60,29.89,10.0,West,11.5,-,N/A,,Clear,270,2014-02-19 17:53:00
1:53 PM,41.0,28.4,61,29.89,10.0,West,11.5,-,N/A,,Clear,260,2014-02-19 18:53:00
2:53 PM,41.0,28.0,60,29.94,10.0,West,12.7,-,N/A,,Clear,260,2014-02-19 19:53:00
3:53 PM,41.0,27.0,57,29.96,10.0,West,9.2,-,N/A,,Clear,260,2014-02-19 20:53:00
4:53 PM,41.0,26.1,55,30.00,10.0,SW,10.4,-,N/A,,Clear,230,2014-02-19 21:53:00
5:53 PM,39.0,26.1,60,30.03,10.0,SW,8.1,-,N/A,,Clear,230,2014-02-19 22:53:00
6:53 PM,36.0,25.0,64,30.04,10.0,SSW,4.6,-,N/A,,Clear,210,2014-02-19 23:53:00
7:53 PM,35.1,25.0,67,30.04,10.0,South,4.6,-,N/A,,Clear,180,2014-02-20 00:53:00
8:53 PM,34.0,25.0,70,30.03,10.0,South,5.8,-,N/A,,Clear,170,2014-02-20 01:53:00
9:53 PM,32.0,26.1,79,30.03,8.0,South,5.8,-,N/A,,Clear,170,2014-02-20 02:53:00
10:53 PM,32.0,26.1,79,30.04,7.0,South,5.8,-,N/A,,Clear,180,2014-02-20 03:53:00
11:53 PM,30.9,26.1,82,30.05,7.0,South,5.8,-,N/A,,Clear,170,2014-02-20 04:53:00